Wind_Speed
10 9 9 10 10 10 9 8 8 6 5 5 5 5 5 5 6 6 6 6 7 7 7 8 8 9 9 9 10 10 10 10 11 12 12 13 14 15 15 15 15 15 15 15
11 11 11 11 11 11 10 9 8 8 6 6 6 6 6 6 7 7 7 8 9 9 9 9 9 9 10 10 11 11 11 12 12 13 14 15 16 16 16 16 16 16 16 16
13 12 12 11 11 12 11 10 10 9 9 9 8 8 8 8 8 8 9 10 10 10 10 10 11 11 11 12 12 13 13 14 15 15 16 17 17 18 18 18 18 18 18 18
14 14 13 11 12 12 12 12 11 11 10 10 10 10 10 10 10 11 11 11 11 12 12 12 13 13 13 14 14 15 16 16 17 18 18 18 19 19 19 19 19 19 19 19
15 15 14 13 13 13 13 13 12 12 11 12 11 11 11 12 12 13 13 13 13 14 14 15 15 16 16 16 17 18 18 18 19 19 20 20 21 21 21 21 21 21 21 21
17 17 15 13 14 14 14 14 13 12 12 13 13 13 13 14 14 15 15 15 15 16 16 17 18 18 19 19 20 20 20 21 21 22 22 23 23 23 23 23 23 23 23 23
18 18 17 15 16 16 15 14 14 14 14 14 14 15 16 16 16 16 17 17 17 17 18 18 19 20 21 21 22 22 23 23 23 24 24 25 25 25 25 26 26 26 26 25
20 20 18 17 18 17 16 16 16 16 16 16 16 17 17 18 18 18 18 18 19 19 19 20 21 21 22 23 23 24 24 25 26 26 27 27 27 27 28 28 28 28 28 27
22 21 19 20 19 19 18 18 17 17 17 18 18 19 19 19 19 20 20 20 20 20 21 22 22 23 24 25 25 26 26 27 28 29 29 30 30 30 31 30 30 30 30 30
23 22 22 22 22 21 20 20 20 19 20 20 20 21 21 22 22 22 22 22 23 23 23 23 24 25 26 27 27 28 29 30 31 31 32 32 32 33 33 33 33 33 33 32
25 24 24 24 23 22 22 22 22 22 22 22 23 23 23 24 24 25 25 25 25 26 26 27 27 28 28 29 29 30 31 32 33 33 33 33 34 34 35 35 36 35 35 35
26 26 26 25 25 25 24 24 24 25 25 25 25 25 26 26 27 27 27 28 28 28 29 29 30 30 31 31 32 32 33 34 34 34 34 35 35 36 37 38 38 37 37 36
30 29 29 28 28 27 27 27 27 28 28 28 28 28 28 28 29 29 29 30 30 31 31 32 32 33 33 34 34 34 35 36 36 37 37 38 38 39 39 39 39 39 39 38
32 32 31 30 30 29 29 29 29 29 30 30 31 31 31 31 31 32 32 32 33 34 34 34 34 35 36 36 37 37 38 38 39 40 40 41 42 42 42 41 41 40 40 40
33 33 32 32 31 30 30 31 31 31 32 32 32 33 33 33 33 34 34 35 35 36 36 37 37 38 39 39 40 40 41 42 42 42 43 43 44 44 43 43 43 42 41 41
32 33 33 33 33 33 32 32 32 32 33 33 33 34 35 35 36 36 36 37 37 38 38 39 40 40 41 42 42 43 44 44 45 45 45 45 45 45 45 45 44 44 43 43
33 33 34 34 34 34 34 34 34 34 35 35 36 36 36 36 37 38 38 39 39 40 41 42 42 43 44 44 45 45 46 46 47 47 47 47 47 47 47 46 46 45 44 44
35 35 36 36 36 36 36 36 36 36 36 37 37 38 38 38 39 39 40 41 42 43 44 45 45 46 46 47 47 48 48 48 48 48 48 48 48 48 48 47 47 46 46 45
37 37 37 38 38 38 38 38 38 38 38 39 39 39 40 41 42 42 43 44 44 45 46 47 48 48 48 49 49 49 49 49 49 49 49 49 49 49 48 48 47 47 46 46
38 39 39 39 39 40 40 40 40 40 40 40 40 41 42 42 43 44 45 45 46 47 47 48 48 49 49 49 50 50 50 50 51 50 50 50 50 49 49 49 48 47 47 46
38 38 39 39 40 40 41 41 42 42 42 42 43 43 44 45 45 46 46 46 47 48 48 48 48 49 49 50 51 51 51 51 51 50 50 50 50 49 49 48 48 47 46 46
38 39 39 40 41 41 42 42 42 43 44 44 45 45 46 46 47 47 47 48 48 48 48 48 49 49 49 50 50 51 51 51 51 51 50 50 50 49 48 48 47 46 46 45
38 39 40 40 41 42 42 43 43 44 45 46 46 47 47 47 48 48 47 47 47 48 49 49 50 50 50 50 51 51 51 51 51 51 50 49 49 48 47 46 45 45 45 44
38 39 40 40 41 42 43 43 44 45 46 47 47 48 48 48 47 47 47 48 48 49 49 49 49 50 51 51 51 52 52 52 52 51 50 49 48 47 46 45 44 43 43 43
39 39 40 41 42 42 43 44 45 46 46 47 47 47 47 47 48 48 48 48 48 49 49 49 50 50 50 50 51 51 51 51 51 50 49 49 48 47 46 45 44 43 42 42
40 41 41 42 42 43 43 44 44 45 45 46 46 46 47 47 47 47 48 48 48 49 49 49 49 49 50 50 50 50 50 50 50 49 48 48 47 46 45 45 44 43 42 41
43 43 43 43 43 43 43 43 43 43 44 45 45 46 46 47 47 47 48 48 48 48 48 48 49 49 49 50 50 49 49 49 48 48 47 47 47 46 45 44 43 42 41 40
Wind_Direction
211 211 216 218 226 236 241 242 245 246 237 229 233 243 252 257 257 254 251 255 258 261 265 268 271 275 281 286 290 293 296 301 304 308 312 314 315 317 318 318 319 319 319 319
221 222 222 223 227 234 240 242 245 243 239 237 238 247 252 255 256 255 253 257 259 262 265 267 271 278 283 286 291 295 298 299 302 305 308 312 313 314 315 315 314 315 316 314
232 234 233 230 229 234 238 242 246 245 246 245 246 250 253 255 257 256 255 258 261 264 267 269 272 277 281 284 288 292 295 297 299 302 305 307 308 309 309 311 311 311 310 310
236 237 238 236 235 239 243 244 246 246 248 249 248 252 257 260 261 261 259 259 262 265 270 273 275 278 281 284 287 289 292 294 296 299 301 303 304 305 306 306 306 306 306 306
240 241 241 239 240 242 244 245 248 249 253 256 255 257 260 264 265 265 264 266 268 270 273 276 278 280 282 284 286 289 291 293 295 297 299 300 301 301 302 303 303 303 304 305
241 243 243 241 241 244 246 247 252 255 257 259 260 263 266 266 268 269 269 270 271 273 275 278 281 283 284 284 285 287 290 292 294 296 296 297 298 298 299 300 301 301 303 303
244 245 245 244 245 247 248 250 251 253 256 259 262 263 264 267 269 272 271 272 273 275 276 278 280 283 284 285 285 286 287 289 291 293 294 295 296 297 298 298 299 299 300 300
247 248 249 249 248 249 250 250 251 253 256 259 261 264 266 269 271 273 272 272 274 277 279 281 282 284 285 286 286 286 287 289 290 291 292 293 294 294 296 296 296 297 297 297
248 250 251 250 251 251 250 252 254 256 257 259 263 266 268 270 272 274 274 274 276 278 280 283 285 286 287 287 287 288 288 289 290 291 291 292 292 293 294 294 294 294 294 294
250 250 250 251 252 252 252 253 255 257 259 262 265 268 270 272 274 275 276 277 279 280 281 283 285 286 287 288 288 289 289 290 290 290 291 291 292 293 293 293 293 293 293 292
252 251 251 252 253 254 255 257 258 260 263 265 267 268 271 273 274 275 277 278 279 280 282 284 285 287 288 288 289 289 290 290 290 291 292 292 292 292 293 293 293 293 292 290
251 251 252 253 255 256 257 258 259 261 263 265 267 268 270 273 275 276 277 278 278 280 282 283 285 286 287 288 289 289 290 290 291 290 291 292 292 293 293 292 292 292 291 289
250 251 253 254 257 259 260 260 261 263 266 268 269 270 271 272 274 276 277 278 279 280 282 283 284 286 287 288 288 289 290 291 291 290 290 291 292 293 293 292 291 290 289 287
251 252 254 255 257 259 260 261 263 264 266 268 270 271 272 273 275 276 277 278 280 281 282 283 284 286 287 288 288 289 290 291 292 292 291 291 291 292 292 291 290 289 288 286
252 252 253 254 256 258 260 262 264 265 267 268 269 271 272 274 275 276 277 278 279 281 282 283 284 285 286 287 288 288 289 291 292 292 292 291 291 291 290 290 289 288 287 286
251 252 253 255 257 259 261 263 265 266 267 269 270 271 272 273 275 276 277 279 279 280 282 283 284 285 285 286 287 288 289 290 291 292 292 292 291 290 290 289 288 287 286 284
252 254 255 257 258 260 261 263 266 267 269 270 271 272 273 274 275 277 278 279 280 281 282 283 284 285 286 287 287 289 290 291 291 291 292 292 291 290 289 288 287 285 284 283
254 255 256 258 259 261 263 265 267 268 269 270 271 272 273 274 276 277 278 280 282 282 283 284 284 285 286 287 288 289 290 290 290 291 291 291 290 289 288 288 286 285 283 281
255 256 257 259 260 262 263 265 267 268 268 269 270 271 273 275 276 278 280 281 282 283 284 284 284 285 286 287 288 289 289 290 290 290 290 290 290 289 287 286 285 284 283 281
258 258 259 260 261 262 264 265 266 267 268 269 271 272 274 276 277 279 280 281 282 283 284 284 285 286 286 287 288 289 289 290 290 290 290 289 289 288 287 286 285 284 283 281
259 260 261 261 262 262 263 264 265 267 268 270 272 273 275 276 278 279 280 282 282 283 284 285 285 286 287 288 288 289 289 290 290 290 290 290 289 289 287 286 284 283 282 281
260 261 262 262 262 263 264 265 266 267 269 271 273 274 276 277 278 280 281 282 283 283 284 285 285 286 287 288 289 289 289 289 290 290 290 290 289 289 288 286 284 283 282 280
261 262 263 264 264 265 266 266 267 269 270 272 273 275 277 278 279 280 281 282 282 283 284 285 286 286 287 287 288 289 289 289 289 290 290 289 289 288 287 286 284 283 281 280
262 263 263 264 265 266 267 268 269 270 272 273 274 275 277 278 279 279 280 282 283 284 284 285 286 287 287 287 288 288 288 288 288 288 289 289 289 288 287 286 284 283 281 279
264 265 265 266 267 268 269 270 271 271 272 273 274 275 277 278 279 280 281 282 283 284 284 285 286 287 288 288 289 289 288 288 287 287 287 288 288 287 286 285 283 282 281 279
265 266 267 268 269 270 271 271 272 272 273 273 274 275 277 278 279 280 281 282 283 284 284 285 286 286 287 289 289 289 289 289 288 288 288 287 287 286 285 284 282 281 279 278
267 267 268 268 269 270 271 272 273 273 273 274 275 276 277 278 280 281 282 282 283 284 284 285 286 287 288 289 290 290 289 288 288 287 287 287 286 285 284 283 281 279 277 276
Height
5826 5826 5827 5828 5828 5829 5830 5831 5832 5833 5834 5835 5835 5835 5836 5836 5836 5837 5837 5838 5838 5839 5839 5839 5839 5838 5838 5837 5837 5836 5835 5833 5832 5830 5829 5827 5825 5823 5820 5818 5816 5813 5811 5808
5824 5824 5825 5826 5826 5827 5828 5829 5830 5831 5832 5833 5833 5834 5834 5834 5835 5835 5835 5835 5836 5836 5836 5836 5836 5835 5835 5834 5833 5832 5831 5830 5829 5827 5825 5823 5821 5819 5817 5814 5812 5809 5807 5805
5821 5821 5822 5824 5825 5825 5826 5827 5828 5829 5831 5831 5831 5831 5832 5832 5832 5832 5832 5833 5833 5833 5833 5833 5833 5832 5832 5831 5830 5829 5828 5827 5825 5824 5822 5820 5817 5815 5813 5810 5808 5806 5803 5801
5818 5820 5820 5824 5822 5822 5823 5824 5825 5826 5827 5828 5829 5829 5829 5829 5829 5829 5830 5830 5829 5829 5829 5829 5829 5828 5828 5827 5826 5825 5824 5822 5821 5819 5817 5815 5813 5811 5808 5806 5804 5801 5799 5797
5814 5815 5817 5818 5819 5819 5820 5821 5821 5822 5823 5824 5824 5825 5825 5825 5825 5825 5825 5825 5825 5825 5825 5824 5824 5824 5823 5822 5821 5820 5819 5817 5816 5814 5812 5810 5808 5806 5803 5801 5799 5796 5794 5791
5810 5810 5812 5816 5815 5815 5817 5817 5818 5818 5819 5820 5820 5821 5822 5821 5821 5821 5821 5821 5820 5820 5820 5819 5819 5818 5818 5817 5816 5814 5813 5812 5810 5808 5806 5804 5802 5800 5798 5795 5793 5790 5788 5785
5804 5805 5807 5810 5810 5811 5813 5815 5814 5814 5815 5815 5816 5817 5817 5817 5817 5816 5816 5815 5815 5815 5815 5814 5813 5813 5812 5810 5810 5808 5807 5805 5804 5802 5800 5798 5796 5793 5791 5789 5786 5784 5781 5779
5799 5800 5805 5804 5805 5807 5808 5808 5809 5810 5810 5811 5811 5811 5812 5812 5811 5811 5811 5810 5810 5809 5809 5808 5807 5806 5805 5804 5803 5801 5800 5798 5797 5795 5793 5790 5788 5786 5784 5781 5779 5776 5774 5771
5794 5797 5798 5798 5799 5801 5802 5803 5804 5804 5805 5805 5806 5806 5806 5806 5806 5805 5805 5804 5804 5803 5802 5801 5800 5799 5798 5796 5795 5794 5792 5790 5789 5786 5784 5782 5780 5778 5775 5773 5770 5768 5766 5764
5787 5789 5791 5792 5793 5794 5795 5797 5798 5798 5799 5800 5800 5800 5800 5800 5799 5799 5798 5798 5797 5796 5795 5794 5793 5792 5790 5789 5787 5785 5784 5782 5780 5777 5775 5773 5770 5768 5766 5763 5761 5759 5757 5754
5780 5782 5783 5785 5786 5787 5789 5790 5791 5792 5792 5793 5793 5793 5793 5793 5792 5792 5791 5790 5790 5789 5788 5787 5785 5784 5782 5780 5779 5777 5774 5772 5770 5768 5765 5763 5761 5758 5756 5753 5751 5749 5746 5744
5773 5775 5776 5778 5779 5780 5781 5782 5783 5784 5785 5785 5785 5785 5785 5785 5784 5784 5783 5782 5782 5781 5780 5778 5777 5775 5773 5771 5769 5767 5765 5763 5760 5758 5755 5753 5751 5748 5745 5742 5740 5737 5734 5732
5765 5766 5768 5769 5771 5772 5773 5774 5775 5776 5777 5777 5777 5777 5777 5776 5776 5775 5774 5773 5772 5772 5770 5769 5767 5765 5763 5761 5759 5757 5755 5752 5750 5747 5745 5742 5740 5737 5734 5732 5728 5726 5723 5721
5755 5757 5759 5761 5762 5763 5764 5766 5767 5767 5768 5768 5768 5768 5767 5767 5767 5766 5765 5764 5763 5761 5760 5759 5757 5755 5753 5751 5748 5746 5744 5741 5738 5736 5733 5730 5728 5725 5722 5720 5717 5714 5712 5709
5746 5748 5750 5751 5753 5754 5755 5756 5757 5758 5758 5758 5758 5758 5757 5757 5756 5756 5755 5753 5752 5751 5749 5748 5746 5744 5742 5739 5737 5735 5732 5729 5726 5723 5720 5717 5714 5711 5709 5706 5703 5701 5699 5697
5737 5738 5740 5742 5743 5744 5745 5746 5747 5747 5748 5748 5748 5747 5747 5746 5745 5745 5743 5742 5741 5739 5738 5736 5734 5732 5729 5727 5725 5722 5719 5716 5713 5710 5707 5703 5700 5697 5694 5692 5689 5687 5685 5683
5727 5729 5730 5732 5733 5734 5735 5736 5736 5737 5737 5736 5736 5736 5735 5735 5734 5733 5732 5730 5729 5727 5725 5723 5721 5719 5716 5714 5711 5709 5706 5702 5699 5696 5692 5689 5686 5683 5680 5677 5675 5672 5671 5668
5717 5718 5719 5721 5722 5723 5724 5725 5725 5725 5725 5725 5725 5724 5724 5723 5722 5721 5719 5718 5716 5714 5712 5710 5707 5705 5703 5700 5697 5694 5691 5688 5685 5681 5678 5675 5671 5668 5665 5662 5659 5657 5655 5653
5705 5707 5708 5709 5710 5711 5712 5713 5713 5713 5713 5713 5712 5712 5711 5710 5709 5708 5706 5705 5703 5701 5698 5695 5693 5691 5688 5685 5682 5679 5676 5673 5669 5666 5662 5659 5656 5652 5649 5646 5644 5641 5639 5638
5693 5694 5696 5697 5698 5699 5700 5700 5700 5700 5700 5700 5700 5699 5698 5697 5696 5694 5692 5691 5689 5686 5684 5681 5679 5676 5673 5670 5667 5664 5660 5657 5654 5650 5647 5643 5640 5637 5633 5630 5628 5626 5623 5622
5680 5682 5683 5684 5685 5686 5686 5687 5687 5687 5687 5687 5686 5686 5685 5683 5681 5680 5678 5676 5674 5671 5669 5667 5664 5661 5658 5655 5652 5648 5645 5641 5638 5634 5631 5627 5624 5620 5617 5614 5612 5609 5607 5606
5668 5669 5670 5671 5672 5673 5673 5673 5673 5673 5673 5673 5672 5671 5670 5669 5667 5665 5664 5662 5660 5657 5654 5652 5649 5646 5643 5640 5636 5633 5629 5626 5622 5619 5615 5611 5608 5604 5601 5598 5596 5594 5592 5590
5655 5656 5657 5658 5658 5659 5659 5659 5659 5659 5658 5658 5657 5656 5655 5654 5652 5651 5649 5647 5644 5642 5639 5637 5634 5631 5627 5624 5621 5617 5613 5610 5606 5603 5599 5595 5592 5588 5585 5583 5580 5578 5576 5574
5642 5643 5643 5644 5644 5645 5645 5645 5645 5644 5644 5643 5642 5641 5640 5638 5637 5635 5633 5631 5629 5627 5624 5621 5618 5615 5611 5608 5605 5601 5597 5594 5590 5586 5583 5580 5576 5573 5570 5567 5565 5563 5561 5560
5628 5629 5630 5630 5630 5631 5631 5630 5630 5629 5629 5628 5627 5626 5624 5623 5622 5620 5618 5616 5613 5611 5608 5606 5602 5599 5596 5592 5589 5585 5581 5577 5574 5570 5567 5564 5561 5557 5555 5552 5550 5548 5546 5545
5615 5615 5616 5616 5616 5616 5616 5615 5615 5614 5614 5613 5612 5611 5609 5608 5606 5604 5602 5600 5598 5595 5592 5589 5586 5583 5580 5576 5572 5568 5565 5561 5558 5554 5551 5548 5545 5542 5540 5537 5535 5533 5532 5531
5601 5601 5602 5602 5602 5601 5601 5600 5600 5600 5599 5598 5597 5596 5594 5592 5591 5589 5586 5584 5582 5579 5576 5573 5570 5567 5564 5560 5557 5553 5549 5545 5542 5539 5536 5533 5530 5527 5524 5522 5520 5518 5517 5516